loading
|
Showing default

LYNK TOWER 6, 59123

Orbit data source: Space-Track

LYNK TOWER 6, 59123 is a payload satellite owned by Lynk (US) in SSO that was launched on Mon, 04 Mar 2024 UTC via an FALCON 9 launch vehicle from the Air Force Western Test Range (AFWTR). Payloads include a variety of satellites, spacecraft, and rockets equipped with specific instruments for various scientific and technological missions. These include communications satellites like Starlink; space stations such as the ISS; scientific satellites like the Hubble; Earth observation satellites from companies like Planet Labs, Umbra, and HawkEye 360; GPS; miniature CubeSats for education and research; and military/defense satellites.

Loading next visibility...
Loading greatness...
LYNK TOWER 6 details
Identifier
59123, 2024-043AB
Orbit
SSO
Last TLE update15 hours ago
Origin
Flag of USLynk (US)
ManufacturerLynk
Mission statusOperational
MissionCommercial Communications
Bus & MotorLYNK SHANNON, Unknown motor
Mass~85 kg wet, ~85 kg dry
Launch date (UTC)
2024-03-04 (7 months ago)
Launch vehicle
FALCON 9
Launch site
Air Force Western Test Range (AFWTR)
Object type
Payload
Rocket body
Debris
Radar Cross SectionMedium (>0.1 m² and <1 m²)

Expand to show TLE details & history

TLE from 15 hours ago
0 LYNK TOWER 6
1 59123U 24043AB  24261.32193880  .00017684  00000-0  84307-3 0  9993
2 59123  97.4849  24.0196 0012335 336.5441  23.5229 15.19096290 29786
Epoch: 2024-09-17T07:43Z
Definitive object data (Epoch: 2024-09-17T07:43:35.512Z)
Latitude-0.00004°
Longitude-88.61663°
Altitude503.868 km
Speed7.617 km/s
True Right ascension01h 36m 04s
True Declination0° 00' 00"
Sunlit
Object was in full shadow at TLE epoch
Predictive object data (real-time)
Latitude-8.06866°
Longitude90.94338°
Altitude520.062 km
Speed7.599 km/s
Apparent Right ascension10h 40m 04s
Apparent Declination-54° 28' 52"
Sunlit
Object is in daylight
Predictive observer data (real-time)
Local Sidereal Time15:35:44
Azimuth217.5° SW
Elevation-23.506°
Doppler factor1
Orbital elements
Apogee514.032 km
Perigee497.05 km
Semi-major axis6,883.678 km
Eccentricity0.0012335
Inclination97.4849°
RAAN24.0196°
Arg. of periapsis336.5441°
True anomaly23.57939°
Mean anomaly23.5229°
Eccentric anomaly23.55114°
Mean motion3.80025 °/min
BSTAR0.00084307
Period94.73 mins
No data available

LYNK TOWER 6 Visibility forecast

Observer location: 39.9160978°, -105.1181434

LYNK TOWER 6 is not visible in the next 10 days
Span
Click to sort rows by Start time (UTC) header in descending order
Start Az.
Max El. time (UTC)
Max El. Az.
Max El.
End time (UTC)
End Az.